RH
28 18 18 23 24 21 18 17 15 20 30 39 47 49 43 34 26 24 27 30 36 38 47 48 86 100 95 88 92 100 100 100 100 100 100 100 98 88 83 79 67 56 52
100 41 15 15 16 17 18 20 22 26 34 54 62 58 48 41 34 26 26 27 33 40 41 52 71 90 100 100 98 100 100 99 100 100 100 100 99 92 87 75 60 54 46
22 18 17 15 14 14 15 23 30 32 41 56 58 58 56 49 39 32 29 27 29 33 37 42 46 52 63 73 92 80 74 86 85 82 78 75 76 75 64 51 42 37 31
24 19 15 14 17 15 15 21 27 33 41 50 54 54 49 46 43 41 38 32 31 34 35 38 38 38 41 39 54 64 70 64 56 51 53 50 48 43 38 32 26 24 22
36 35 27 21 23 20 18 17 24 26 36 51 62 54 48 41 39 41 43 44 41 42 43 42 43 41 34 35 38 37 36 32 30 27 24 23 22 22 20 24 24 24 19
60 46 46 36 28 20 20 22 19 22 33 51 65 56 48 42 43 46 59 99 100 83 55 50 47 55 50 39 32 31 33 31 32 29 29 26 23 20 20 21 22 25 29
77 56 50 40 36 26 22 23 24 22 24 38 52 55 55 49 53 64 86 84 95 81 75 77 61 48 39 36 38 36 32 28 33 27 27 27 26 24 23 21 20 21 23
54 65 58 50 41 35 36 31 26 23 28 36 40 52 62 53 66 71 70 92 76 52 46 81 70 68 64 46 32 30 34 33 35 31 30 27 27 25 26 24 23 33 37
43 67 56 50 40 55 69 42 33 33 28 33 36 39 41 48 84 100 99 80 97 86 64 66 81 85 55 61 66 47 34 30 35 38 30 37 36 38 35 29 35 44 25
25 35 49 42 41 40 48 55 38 38 59 62 46 30 32 31 49 48 97 100 100 100 100 100 92 78 84 66 74 71 71 69 52 52 72 77 62 57 50 53 48 30 22
32 24 30 48 64 34 32 42 41 58 84 100 89 48 32 29 34 54 57 61 98 100 100 83 51 61 64 61 63 73 84 74 71 67 87 89 82 67 64 51 38 31 28
56 53 53 68 84 76 46 44 50 35 61 61 41 38 43 42 58 66 45 44 43 63 75 86 61 53 51 52 52 80 92 74 71 66 97 98 94 54 48 40 42 49 68
84 65 58 92 98 94 99 83 69 51 31 39 34 50 36 40 62 65 63 53 47 59 77 90 100 85 65 62 58 77 75 69 67 66 84 88 97 68 48 49 51 51 63
100 92 73 84 100 92 100 100 98 81 62 40 30 30 35 32 41 55 66 97 60 40 44 45 60 70 94 86 83 90 96 81 67 72 85 85 89 95 54 53 60 71 61
92 100 86 64 95 100 100 100 100 96 74 63 44 46 54 30 26 54 85 99 82 82 47 56 57 63 79 95 84 68 99 99 72 73 90 99 100 99 97 78 92 86 93
95 100 100 93 77 95 100 100 100 100 88 71 62 61 54 55 36 36 63 71 77 81 54 59 66 65 76 91 77 58 67 100 98 71 73 96 100 100 100 100 100 100 100
88 100 100 100 91 54 91 100 100 100 100 99 87 80 62 60 35 30 51 62 100 100 94 49 80 70 60 59 88 80 56 62 85 99 80 65 80 95 100 100 100 100 100
92 95 100 100 98 100 69 95 100 100 100 97 87 79 75 65 55 45 36 58 100 100 100 100 100 98 52 34 57 97 96 88 90 58 80 87 95 93 98 100 100 100 100
95 100 100 100 96 100 100 100 100 100 100 98 98 87 90 86 70 42 45 66 88 90 100 100 100 82 71 36 29 34 98 100 100 94 84 71 86 87 76 88 95 100 100
100 100 100 100 87 64 100 88 99 71 87 100 100 97 99 82 77 56 46 57 98 100 100 100 100 100 75 86 54 24 23 83 100 100 100 99 90 95 100 94 74 83 98
100 100 100 100 79 98 100 100 100 100 100 100 100 100 100 98 89 70 61 55 70 100 100 100 95 100 99 81 47 28 20 29 66 95 100 90 100 100 100 99 100 100 100
100 100 100 100 100 96 100 100 100 98 100 100 100 100 100 85 76 64 88 68 90 100 99 89 86 61 64 69 58 33 24 27 61 99 100 98 92 81 96 100 100 97 93
100 100 100 100 100 90 84 94 100 100 100 96 100 100 97 89 75 56 78 100 92 100 100 100 83 66 73 72 68 32 45 78 100 100 100 100 98 82 62 66 89 96 88
76 81 100 100 100 100 100 74 100 100 100 100 100 100 92 90 78 54 41 92 97 100 100 85 67 69 66 81 69 53 44 49 98 100 100 100 99 100 89 65 66 64 67
94 92 62 75 100 100 100 100 100 100 100 100 100 88 82 77 69 78 58 92 100 100 100 97 65 51 68 64 74 84 93 55 49 70 92 98 98 100 100 99 84 70 62
85 100 95 95 80 100 100 100 100 100 100 100 100 86 75 69 65 95 77 80 94 100 97 97 87 74 70 95 99 71 76 88 88 56 58 66 72 76 88 94 96 92 94
Wind_Speed
36 40 44 42 42 43 43 45 44 48 49 48 47 46 46 48 49 50 49 51 55 58 58 58 58 54 59 60 61 60 52 52 52 49 51 52 54 54 53 51 50 52 53
28 29 33 36 40 44 44 45 43 44 48 45 45 46 47 46 47 49 51 51 53 56 58 59 60 60 56 60 60 62 60 56 54 50 49 51 51 50 50 53 55 57 56
26 23 27 30 34 38 45 45 44 45 44 44 45 46 44 43 45 48 49 50 51 52 55 58 60 64 63 63 61 63 65 62 58 57 57 60 58 57 58 58 58 58 59
29 21 25 22 29 32 38 44 43 43 44 44 45 46 46 47 45 45 47 50 51 50 52 55 58 60 62 62 62 62 61 62 62 62 60 62 61 61 61 60 58 58 59
36 37 30 26 29 26 32 37 42 40 42 41 40 41 44 43 42 44 45 48 49 49 49 52 55 59 62 62 62 60 59 60 61 62 60 60 58 56 56 57 57 56 58
42 43 42 36 33 24 31 31 38 41 42 40 40 40 41 40 40 39 37 33 37 44 47 52 54 54 55 58 61 59 61 58 59 59 58 57 57 57 57 57 58 57 55
41 41 37 40 42 36 28 27 31 36 42 43 43 39 36 35 38 36 33 35 46 46 44 46 47 50 52 54 54 55 59 57 59 59 57 55 55 57 57 57 56 56 54
43 42 41 39 41 40 37 37 35 30 32 40 43 41 38 38 35 40 40 41 47 48 48 43 42 43 47 50 53 55 55 52 54 56 55 53 55 55 54 55 53 52 51
36 40 42 43 39 37 39 39 37 31 37 35 34 39 42 39 38 40 44 45 50 51 50 51 53 51 48 48 47 48 51 52 52 54 51 52 50 51 51 51 50 49 50
45 34 45 38 47 49 43 41 38 35 36 35 34 35 34 33 41 45 49 52 53 51 52 52 55 51 48 49 48 47 47 48 48 49 47 48 47 49 47 46 46 45 40
40 45 46 50 47 40 42 44 43 38 30 33 41 45 45 45 44 42 48 51 58 58 57 59 60 55 51 47 47 49 51 48 47 48 46 45 45 47 46 45 44 43 42
46 51 58 58 57 50 46 44 41 42 41 41 46 41 42 46 45 44 47 45 53 55 58 59 58 57 54 51 50 44 50 52 49 47 51 50 46 45 45 45 42 42 39
54 54 55 61 60 55 53 50 48 46 43 54 50 45 46 44 47 46 46 49 49 49 55 60 60 60 59 53 52 50 50 49 50 51 52 54 49 47 45 46 44 45 43
65 58 52 58 63 57 57 55 58 50 51 45 46 45 45 50 46 56 54 50 49 52 50 57 62 59 63 59 53 51 51 52 51 50 49 51 50 48 45 46 48 47 47
71 68 55 54 58 62 57 62 63 52 52 55 53 55 45 49 53 52 54 57 55 56 53 47 47 50 56 61 62 55 49 52 53 53 50 47 49 50 49 49 49 50 50
67 77 69 62 52 58 61 67 64 53 53 61 58 52 52 50 51 56 57 63 62 56 51 49 48 47 49 55 61 61 55 54 56 58 54 51 49 52 52 53 49 52 54
74 73 78 70 61 58 61 64 69 67 56 56 52 51 54 55 56 55 56 60 54 54 54 55 58 58 53 53 59 63 64 65 64 61 60 60 57 54 53 54 56 55 57
95 64 79 75 58 51 55 58 64 68 64 62 59 57 56 53 55 57 62 62 61 58 57 60 62 62 61 58 58 67 66 70 69 72 65 64 63 61 59 59 60 60 60
70 54 70 69 61 52 64 65 67 67 66 66 66 66 57 53 54 62 62 64 63 65 63 64 63 62 58 61 56 63 71 71 70 75 72 71 68 68 65 66 64 62 61
61 63 67 66 62 56 61 63 61 69 75 73 66 63 57 56 54 61 66 63 62 59 59 63 58 57 58 58 58 57 67 77 77 73 74 72 70 71 71 71 69 68 66
63 64 62 66 73 61 61 72 68 69 72 70 71 64 57 52 54 56 60 63 64 63 63 58 55 52 55 54 61 54 59 64 71 78 82 81 77 77 77 77 77 76 75
64 66 63 70 72 67 66 66 73 74 76 72 72 63 59 63 59 55 57 64 60 59 55 61 59 57 59 61 55 54 54 62 62 69 72 74 80 82 84 81 83 81 81
70 68 67 65 65 71 73 72 73 74 78 79 74 69 64 62 62 60 58 61 58 58 61 61 62 60 63 59 58 55 58 59 57 65 67 72 75 77 76 82 88 86 86
71 75 71 65 67 69 75 72 78 84 84 81 80 73 65 59 58 63 66 68 65 63 63 66 65 64 62 58 61 60 58 56 61 63 70 76 78 79 80 82 80 81 85
61 68 78 75 73 69 69 74 78 82 80 78 79 81 79 70 68 64 66 70 70 69 70 69 72 71 68 65 70 60 61 63 59 65 68 71 73 73 75 79 83 82 83
58 63 64 65 70 71 74 77 80 82 85 85 84 84 80 75 71 65 68 72 72 72 72 74 74 70 71 72 72 65 64 62 68 69 73 75 78 80 80 81 80 79 81
Wind_Direction
269 274 271 269 271 272 270 270 268 265 262 261 262 262 264 262 260 259 259 257 255 253 253 254 254 256 253 255 255 251 252 253 253 255 256 259 259 261 262 264 265 268 271
280 283 280 273 270 268 267 266 265 265 261 261 262 262 263 261 263 262 259 258 255 254 255 254 256 259 258 256 258 255 255 259 253 256 258 261 262 262 264 269 273 274 274
294 294 282 275 278 280 267 261 260 260 260 259 261 260 261 263 262 261 260 259 260 260 258 257 258 260 262 263 259 257 257 263 264 266 264 263 265 268 269 271 273 273 274
310 309 285 288 298 284 273 264 262 260 260 263 264 263 260 259 261 263 265 264 261 261 262 260 259 259 263 264 264 263 261 262 266 268 267 270 269 270 270 271 270 271 271
313 311 314 297 315 294 289 275 264 261 261 261 267 266 262 260 261 264 264 266 266 263 261 262 261 261 262 264 264 266 267 265 266 266 267 266 268 268 270 268 269 268 268
312 314 314 312 313 308 306 296 271 265 264 264 266 265 264 266 265 263 264 263 263 264 264 263 262 262 265 266 265 266 265 265 267 267 267 268 267 266 266 266 267 268 268
304 307 308 314 313 309 316 311 309 281 269 267 267 265 265 268 269 265 262 272 265 258 257 266 265 266 266 266 266 264 265 264 266 266 267 266 266 266 265 264 265 264 265
306 303 302 303 305 311 313 309 310 295 297 281 273 272 273 267 265 266 265 255 261 264 266 261 261 272 273 270 267 266 265 264 264 265 264 266 266 266 265 265 263 263 263
308 302 308 301 298 302 308 310 308 298 306 291 288 281 274 268 259 263 261 263 260 266 270 269 269 275 279 271 271 270 268 266 263 267 268 269 270 271 267 266 262 262 264
303 305 308 312 306 300 295 298 301 299 297 288 289 292 284 288 279 268 256 259 260 266 264 268 271 267 271 272 272 270 270 266 265 265 267 268 272 270 266 262 260 260 258
297 298 298 301 301 304 311 299 296 295 280 270 282 287 284 281 286 274 265 262 259 259 263 265 270 270 269 268 269 270 268 269 267 264 262 266 269 267 265 259 256 253 258
291 291 292 292 296 294 296 298 302 296 285 286 291 291 283 282 279 276 280 272 269 263 266 267 270 269 270 269 269 268 267 265 266 264 260 264 265 265 261 258 253 253 257
287 294 293 292 291 294 285 291 289 292 291 299 288 288 283 283 274 268 274 268 274 274 265 263 267 271 271 270 271 269 268 265 264 263 260 259 264 262 257 257 255 252 252
291 286 289 291 291 292 284 292 288 285 286 290 291 293 293 290 282 268 269 275 272 269 273 272 269 270 267 266 264 264 268 267 268 266 264 260 259 257 254 256 254 252 253
299 285 283 288 287 288 285 291 285 277 285 287 288 292 290 297 291 277 269 273 275 276 274 273 271 270 270 265 263 259 259 266 264 263 263 261 259 259 253 250 251 251 250
297 288 279 281 283 276 279 283 283 270 274 281 282 281 290 294 297 292 274 271 275 274 269 273 272 277 274 270 270 266 257 261 262 262 260 259 258 256 258 255 253 252 252
297 287 280 273 278 290 274 275 277 272 270 272 272 278 289 292 294 298 277 271 272 274 270 275 282 282 280 276 268 269 268 262 259 259 262 262 257 253 252 255 258 257 254
294 284 281 276 277 280 280 269 273 268 271 270 273 278 285 290 292 290 296 271 271 271 271 280 278 278 279 281 268 264 262 263 261 260 255 259 261 258 253 251 254 254 254
287 278 277 272 276 273 272 273 273 267 268 270 268 273 278 286 289 292 295 273 268 271 273 273 277 278 280 279 273 266 257 254 257 261 260 256 257 260 258 255 254 255 258
268 267 268 270 278 267 266 269 266 266 267 264 266 272 277 284 286 291 293 274 265 263 266 269 276 278 280 283 284 272 264 255 254 254 257 259 259 259 260 261 260 258 257
262 262 261 264 267 270 271 266 265 267 266 260 271 268 278 278 280 285 285 274 264 259 262 267 272 274 282 286 288 281 270 269 259 261 256 258 257 258 260 260 258 259 260
262 260 263 259 260 264 267 270 268 270 271 268 269 271 271 275 281 281 266 266 258 258 265 266 272 278 284 287 291 283 277 276 266 262 265 263 264 262 258 259 261 261 260
257 258 259 257 262 265 264 265 269 268 264 266 267 269 275 276 277 279 269 259 254 260 264 269 272 278 289 291 288 285 274 275 268 267 263 259 260 263 265 264 261 262 263
256 252 255 257 262 264 263 268 266 264 263 267 267 269 273 271 273 275 279 256 260 264 271 272 273 276 279 290 292 281 272 273 265 264 263 264 264 266 268 269 268 269 267
270 261 252 249 253 259 260 259 261 262 266 269 271 274 272 273 276 265 266 254 258 266 270 278 276 273 284 284 295 284 275 270 274 266 265 266 267 268 271 271 269 271 272
272 259 255 253 243 254 256 259 262 265 267 268 271 271 272 273 272 257 259 256 265 267 272 275 279 280 282 289 291 291 280 270 269 273 273 269 269 269 270 270 270 272 273